Flag for U.S.A. Weather past 2 weeks in West Covina, California, U.S.A.

Now
96 °F

Sunny.


Feels Like: 96 °F
Forecast: 75 / 98 °F
Wind: 7 mph from Southwest

Location: Fullerton Municipal Airport

Current Time: Sep 17, 2014 at 11:47:30 AM

Latest Report: Sep 17, 2014 at 10:53 AM


Visibility: 10 mi

Pressure: 29.73 "Hg

Humidity: 30%

Dew point: 60 °F

Location of West CovinaLocation

Historic Weather in West Covina — Graph

°F

West Covina temperature yesterday

Maximum temperature yesterday: 101 °F (at 2:53 PM)
Minimum temperature yesterday: 75 °F (at 5:53 AM)
Average temperature yesterday: 87 °F

Past Weeks' High & Low Weather Summary

 TemperatureHumidityPressure
High104 °F (Sep 14, 2:53 PM)85% (Sep 5, 4:53 AM)29.91 "Hg (Sep 5, 4:53 AM)
Low65 °F (Sep 10, 6:53 AM)20% (Sep 9, 12:53 PM)29.66 "Hg (Sep 14, 2:53 PM)
Average80 °F55%29.78 "Hg
* Reported Sep 2 9:03 AM — Sep 17 9:53 AM, West Covina, Weather by CustomWeather, © 2014

Note: Actual official high and low records may vary slightly from our data, if they occured in-between our weather recording intervals... More about our weather records

Advertising

West Covina weather history for previous 24 hours

 ConditionsComfort  
Time TempWeatherWind HumidityBarometerVisibility
9:53 AM
Sep 17
93 °FSunny.3 mph34%29.73 "Hg10 mi
8:53 AM88 °FSunny.No wind39%29.73 "HgN/A
7:53 AM83 °FSunny.No wind46%29.72 "Hg10 mi
6:53 AM78 °FClear.No wind56%29.72 "Hg10 mi
5:53 AM78 °FClear.No wind58%29.70 "Hg10 mi
4:53 AM80 °FClear.No wind52%29.69 "Hg10 mi
3:53 AM80 °FClear.No wind52%29.70 "Hg10 mi
2:53 AM80 °FClear.No wind49%29.70 "Hg10 mi
1:53 AM82 °FClear.3 mph49%29.70 "Hg10 mi
12:53 AM83 °FClear.3 mph40%29.70 "Hg10 mi
11:53 PM
Sep 16
83 °FClear.No wind44%29.71 "Hg10 mi
10:53 PM84 °FClear.No wind40%29.71 "Hg10 mi
9:53 PM85 °FClear.No wind36%29.71 "Hg10 mi
8:53 PM85 °FClear.7 mph35%29.71 "Hg10 mi
7:53 PM88 °FSunny.5 mph31%29.70 "Hg10 mi
6:53 PM91 °FSunny.8 mph28%29.67 "Hg10 mi
5:53 PM97 °FSunny.6 mph24%29.67 "Hg10 mi
4:53 PM99 °FSunny.6 mph23%29.68 "Hg10 mi
3:53 PM99 °FSunny.8 mph23%29.69 "Hg10 mi
2:53 PM101 °FSunny.7 mph24%29.66 "Hg10 mi
1:53 PM98 °FSunny.9 mph27%29.69 "Hg10 mi
12:53 PM97 °FSunny.9 mph32%29.71 "Hg10 mi
11:53 AM97 °FSunny.9 mph27%29.73 "Hg10 mi
Weather by CustomWeather, © 2014

See weather overviewHow to use our weather pages